Regional Weather Roundup
Issued by NWS

Home | Current Version | Previous Version | Text Only | Print | Product List | Glossary Off
Versions: 1 2 3 4 5 6 7 8 9 10 11 12 13 14 15 16 17 18 19 20 21 22 23 24 25 26 27 28 29 30 31 32 33 34 35 36 37 38 39 40 41 42 43 44 45 46 47 48 49 50

000
ASUS43 KFSD 220502
RWRSD

WEATHER ROUNDUP FOR SOUTH DAKOTA
NATIONAL WEATHER SERVICE SIOUX FALLS SD
1200 AM CDT MON SEP 22 2014

NOTE: "FAIR" INDICATES FEW OR NO CLOUDS BELOW 12,000 FEET WITH NO
SIGNIFICANT WEATHER AND/OR OBSTRUCTIONS TO VISIBILITY.


SDZ001>005-009-010-012>017-220600-
NORTHWEST AND NORTH CENTRAL SOUTH DAKOTA

CITY           SKY/WX    TMP DP  RH WIND       PRES   REMARKS
FAITH            N/A     53  40  61 SE14      30.22F
MOBRIDGE       CLEAR     51  45  79 SE6       30.21S
$$

SDZ012>016-024>037-041>051-057-063-072>074-220600-
SOUTHWEST AND SOUTH CENTRAL SOUTH DAKOTA

CITY           SKY/WX    TMP DP  RH WIND       PRES   REMARKS
RAPID CTY ARPT CLEAR     53  37  54 S5        30.24F
PIERRE         CLEAR     49  39  68 E3        30.24S
CUSTER         PTCLDY    46  34  62 CALM      30.33F
ELLSWORTH AFB  CLEAR     54  38  54 S6        30.23F
PHILIP         PTCLDY    49  39  68 E7        30.23F
PINE RIDGE     CLEAR     56  38  50 NE7       30.25F
WINNER         FAIR      52  42  69 S3        30.27S
$$

SDZ004>011-016>023-039-040-220600-
NORTHEAST SOUTH DAKOTA

CITY           SKY/WX    TMP DP  RH WIND       PRES   REMARKS
ABERDEEN       CLEAR     46  43  89 S3        30.23F
WATERTOWN      CLEAR     48  44  86 CALM      30.25F
SISSETON         N/A     46  45  96 SE5       30.22F
$$

SDZ017-020-022-023-036>040-048>070-220600-
SOUTHEAST SOUTH DAKOTA

CITY           SKY/WX    TMP DP  RH WIND       PRES   REMARKS
SIOUX FALLS    CLEAR     49  46  90 CALM      30.27S
HURON          CLEAR     52  45  77 SE3       30.24F
CHAMBERLAIN    CLEAR     50  44  80 SE6       30.27R
MITCHELL       CLEAR     54  48  80 S5        30.26S
YANKTON        CLEAR     52  45  76 CALM      30.27S
$$

ABBREVIATIONS USED IN REMARKS
   TC - TEMPERATURE IN CELSIUS
  WCI - WIND CHILL INDEX
   HX - HEAT INDEX
  VSB - VISIBILITY



USA.gov is the U.S. government's official web portal to all federal, state and local government web resources and services.